Location: Brede
(50.9167°N, 0.6000°E)
Time: 19:44:47
(UTC+00:00)

Vanguard 1 Rocket - Pass Details

Date: 29 November 2020
Orbit: 655 x 4221 km, 34.3° (Epoch: 17 January)

Event Time Altitude Azimuth Distance (km) Brightness Sun altitude
Exits shadow 05:31:48 16° 257° (WSW) 6,144 11.0 -18.8°
Maximum altitude 05:45:49 36° 206° (SSW) 3,657 10.3 -16.6°
Drops below altitude 10° 05:56:14 10° 145° (SE) 4,116 11.5 -15.0°
Sets 05:59:08 0° 136° (SE) 4,724 12.2 -14.6°
